Time,TemperatureF,DewpointF,PressureIn,WindDirection,WindDirectionDegrees,WindSpeedMPH,WindSpeedGustMPH,Humidity,HourlyPrecipIn,Conditions,Clouds,dailyrainin,SoftwareType,DateUTC
2013-05-18 00:00:00,59.1,54.6,30.08,N/A,-737280,0.0,0.0,85,0.00,,,0.00,Wunderground v.1.13,2013-05-18 04:00:00,
2013-05-18 00:05:00,59.1,54.6,30.08,N/A,-737280,0.0,0.0,85,0.00,,,0.00,Wunderground v.1.13,2013-05-18 04:05:00,
2013-05-18 00:10:00,59.0,54.5,30.08,N/A,-737280,0.0,0.0,85,0.00,,,0.00,Wunderground v.1.13,2013-05-18 04:10:00,
2013-05-18 00:15:00,59.0,54.8,30.08,WSW,248,0.0,1.0,86,0.00,,,0.00,Wunderground v.1.13,2013-05-18 04:15:00,
2013-05-18 00:20:00,59.0,54.8,30.08,N/A,-737280,0.0,0.0,86,0.00,,,0.00,Wunderground v.1.13,2013-05-18 04:20:00,
2013-05-18 00:25:00,58.9,54.7,30.08,N/A,-737280,0.0,0.0,86,0.00,,,0.00,Wunderground v.1.13,2013-05-18 04:25:00,
2013-05-18 00:30:00,58.6,54.4,30.08,N/A,-737280,0.0,0.0,86,0.00,,,0.00,Wunderground v.1.13,2013-05-18 04:30:00,
2013-05-18 00:35:00,58.5,54.3,30.08,N/A,-737280,0.0,0.0,86,0.00,,,0.00,Wunderground v.1.13,2013-05-18 04:35:00,
2013-05-18 00:40:00,58.4,54.2,30.08,N/A,-737280,0.0,0.0,86,0.00,,,0.00,Wunderground v.1.13,2013-05-18 04:40:00,
2013-05-18 00:45:00,58.3,54.1,30.08,N/A,-737280,0.0,0.0,86,0.00,,,0.00,Wunderground v.1.13,2013-05-18 04:45:00,
2013-05-18 00:50:00,58.2,54.3,30.07,N/A,-737280,0.0,0.0,87,0.00,,,0.00,Wunderground v.1.13,2013-05-18 04:50:00,
2013-05-18 00:55:00,58.0,54.2,30.07,N/A,-737280,0.0,0.0,87,0.00,,,0.00,Wunderground v.1.13,2013-05-18 04:55:00,
2013-05-18 01:00:00,57.7,53.9,30.07,N/A,-737280,0.0,0.0,87,0.00,,,0.00,Wunderground v.1.13,2013-05-18 05:00:00,
2013-05-18 01:05:00,57.5,53.7,30.07,N/A,-737280,0.0,0.0,87,0.00,,,0.00,Wunderground v.1.13,2013-05-18 05:05:00,
2013-05-18 01:10:00,57.4,53.6,30.07,N/A,-737280,0.0,0.0,87,0.00,,,0.00,Wunderground v.1.13,2013-05-18 05:10:00,
2013-05-18 01:15:00,57.2,53.4,30.07,N/A,-737280,0.0,0.0,87,0.00,,,0.00,Wunderground v.1.13,2013-05-18 05:15:00,
2013-05-18 01:20:00,57.1,53.6,30.07,N/A,-737280,0.0,0.0,88,0.00,,,0.00,Wunderground v.1.13,2013-05-18 05:20:00,
2013-05-18 01:25:00,56.9,53.4,30.07,N/A,-737280,0.0,0.0,88,0.00,,,0.00,Wunderground v.1.13,2013-05-18 05:25:00,
2013-05-18 01:30:00,57.0,53.5,30.07,N/A,-737280,0.0,0.0,88,0.00,,,0.00,Wunderground v.1.13,2013-05-18 05:30:00,
2013-05-18 01:35:00,56.8,53.3,30.07,N/A,-737280,0.0,0.0,88,0.00,,,0.00,Wunderground v.1.13,2013-05-18 05:35:00,
2013-05-18 01:40:00,56.7,53.2,30.07,N/A,-737280,0.0,0.0,88,0.00,,,0.00,Wunderground v.1.13,2013-05-18 05:40:00,
2013-05-18 01:45:00,56.6,53.4,30.07,N/A,-737280,0.0,0.0,89,0.00,,,0.00,Wunderground v.1.13,2013-05-18 05:45:00,
2013-05-18 01:50:00,56.5,53.3,30.07,N/A,-737280,0.0,0.0,89,0.00,,,0.00,Wunderground v.1.13,2013-05-18 05:50:00,
2013-05-18 01:55:00,56.3,53.1,30.07,WSW,248,0.0,1.0,89,0.00,,,0.00,Wunderground v.1.13,2013-05-18 05:55:00,
2013-05-18 02:00:00,56.2,53.0,30.06,N/A,-737280,0.0,0.0,89,0.00,,,0.00,Wunderground v.1.13,2013-05-18 06:00:00,
2013-05-18 02:05:00,56.1,52.9,30.07,N/A,-737280,0.0,0.0,89,0.00,,,0.00,Wunderground v.1.13,2013-05-18 06:05:00,
2013-05-18 02:10:00,56.0,52.8,30.07,N/A,-737280,0.0,0.0,89,0.00,,,0.00,Wunderground v.1.13,2013-05-18 06:10:00,
2013-05-18 02:15:00,55.9,52.7,30.07,N/A,-737280,0.0,0.0,89,0.00,,,0.00,Wunderground v.1.13,2013-05-18 06:15:00,
2013-05-18 02:20:00,55.8,52.6,30.07,N/A,-737280,0.0,0.0,89,0.00,,,0.00,Wunderground v.1.13,2013-05-18 06:20:00,
2013-05-18 02:25:00,55.8,52.6,30.07,N/A,-737280,0.0,0.0,89,0.00,,,0.00,Wunderground v.1.13,2013-05-18 06:25:00,
2013-05-18 02:30:00,55.7,52.5,30.06,WSW,248,0.0,1.0,89,0.00,,,0.00,Wunderground v.1.13,2013-05-18 06:30:00,
2013-05-18 02:35:00,55.6,52.7,30.07,N/A,-737280,0.0,0.0,90,0.00,,,0.00,Wunderground v.1.13,2013-05-18 06:35:00,
2013-05-18 02:40:00,55.6,52.7,30.07,N/A,-737280,0.0,0.0,90,0.00,,,0.00,Wunderground v.1.13,2013-05-18 06:40:00,
2013-05-18 02:45:00,55.5,52.6,30.06,N/A,-737280,0.0,0.0,90,0.00,,,0.00,Wunderground v.1.13,2013-05-18 06:45:00,
2013-05-18 02:50:00,55.4,52.5,30.06,N/A,-737280,0.0,0.0,90,0.00,,,0.00,Wunderground v.1.13,2013-05-18 06:50:00,
2013-05-18 02:55:00,55.4,52.2,30.06,N/A,-737280,0.0,0.0,89,0.00,,,0.00,Wunderground v.1.13,2013-05-18 06:55:00,
2013-05-18 03:00:00,55.4,52.5,30.06,N/A,-737280,0.0,0.0,90,0.00,,,0.00,Wunderground v.1.13,2013-05-18 07:00:00,
2013-05-18 03:05:00,55.3,52.4,30.07,N/A,-737280,0.0,0.0,90,0.00,,,0.00,Wunderground v.1.13,2013-05-18 07:05:00,
2013-05-18 03:10:00,55.2,52.3,30.07,N/A,-737280,0.0,0.0,90,0.00,,,0.00,Wunderground v.1.13,2013-05-18 07:10:00,
2013-05-18 03:15:00,55.1,52.2,30.07,N/A,-737280,0.0,0.0,90,0.00,,,0.00,Wunderground v.1.13,2013-05-18 07:15:00,
2013-05-18 03:20:00,55.1,52.2,30.07,N/A,-737280,0.0,0.0,90,0.00,,,0.00,Wunderground v.1.13,2013-05-18 07:20:00,
2013-05-18 03:25:00,55.0,52.1,30.07,N/A,-737280,0.0,0.0,90,0.00,,,0.00,Wunderground v.1.13,2013-05-18 07:25:00,
2013-05-18 03:30:00,55.0,52.1,30.08,N/A,-737280,0.0,0.0,90,0.00,,,0.00,Wunderground v.1.13,2013-05-18 07:30:00,
2013-05-18 03:40:00,54.8,51.9,30.08,N/A,-737280,0.0,0.0,90,0.00,,,0.00,Wunderground v.1.13,2013-05-18 07:40:00,
2013-05-18 03:45:00,54.7,51.8,30.07,N/A,-737280,0.0,0.0,90,0.00,,,0.00,Wunderground v.1.13,2013-05-18 07:45:00,
2013-05-18 03:50:00,54.6,51.7,30.07,N/A,-737280,0.0,0.0,90,0.00,,,0.00,Wunderground v.1.13,2013-05-18 07:50:00,
2013-05-18 04:00:00,54.4,51.5,30.07,N/A,-737280,0.0,0.0,90,0.00,,,0.00,Wunderground v.1.13,2013-05-18 08:00:00,
2013-05-18 04:05:00,54.3,51.4,30.07,N/A,-737280,0.0,0.0,90,0.00,,,0.00,Wunderground v.1.13,2013-05-18 08:05:00,
2013-05-18 04:10:00,54.2,51.3,30.07,N/A,-737280,0.0,0.0,90,0.00,,,0.00,Wunderground v.1.13,2013-05-18 08:10:00,
2013-05-18 04:15:00,54.1,51.2,30.07,N/A,-737280,0.0,0.0,90,0.00,,,0.00,Wunderground v.1.13,2013-05-18 08:15:00,
2013-05-18 04:20:00,54.1,51.2,30.07,N/A,-737280,0.0,0.0,90,0.00,,,0.00,Wunderground v.1.13,2013-05-18 08:20:00,
2013-05-18 04:25:00,54.0,51.1,30.07,WSW,248,0.0,1.0,90,0.00,,,0.00,Wunderground v.1.13,2013-05-18 08:25:00,
2013-05-18 04:30:00,53.9,51.3,30.08,N/A,-737280,0.0,0.0,91,0.00,,,0.00,Wunderground v.1.13,2013-05-18 08:30:00,
2013-05-18 04:35:00,53.9,51.3,30.07,N/A,-737280,0.0,0.0,91,0.00,,,0.00,Wunderground v.1.13,2013-05-18 08:35:00,
2013-05-18 04:40:00,53.8,51.2,30.07,N/A,-737280,0.0,0.0,91,0.00,,,0.00,Wunderground v.1.13,2013-05-18 08:40:00,
2013-05-18 04:45:00,53.7,51.1,30.07,N/A,-737280,0.0,0.0,91,0.00,,,0.00,Wunderground v.1.13,2013-05-18 08:45:00,
2013-05-18 04:50:00,53.5,50.9,30.07,N/A,-737280,0.0,0.0,91,0.00,,,0.00,Wunderground v.1.13,2013-05-18 08:50:00,
2013-05-18 04:55:00,53.4,50.8,30.07,N/A,-737280,0.0,0.0,91,0.00,,,0.00,Wunderground v.1.13,2013-05-18 08:55:00,
2013-05-18 05:00:00,53.3,50.7,30.07,N/A,-737280,0.0,0.0,91,0.00,,,0.00,Wunderground v.1.13,2013-05-18 09:00:00,
2013-05-18 05:05:00,53.2,50.6,30.07,N/A,-737280,0.0,0.0,91,0.00,,,0.00,Wunderground v.1.13,2013-05-18 09:05:00,
2013-05-18 05:10:00,53.2,50.6,30.07,N/A,-737280,0.0,0.0,91,0.00,,,0.00,Wunderground v.1.13,2013-05-18 09:10:00,
2013-05-18 05:15:00,53.1,50.5,30.08,N/A,-737280,0.0,0.0,91,0.00,,,0.00,Wunderground v.1.13,2013-05-18 09:15:00,
2013-05-18 05:20:00,53.0,50.4,30.08,N/A,-737280,0.0,0.0,91,0.00,,,0.00,Wunderground v.1.13,2013-05-18 09:20:00,
2013-05-18 05:25:00,53.0,50.4,30.08,N/A,-737280,0.0,0.0,91,0.00,,,0.00,Wunderground v.1.13,2013-05-18 09:25:00,
2013-05-18 05:30:00,52.8,50.2,30.08,N/A,-737280,0.0,0.0,91,0.00,,,0.00,Wunderground v.1.13,2013-05-18 09:30:00,
2013-05-18 05:35:00,52.7,50.1,30.08,N/A,-737280,0.0,0.0,91,0.00,,,0.00,Wunderground v.1.13,2013-05-18 09:35:00,
2013-05-18 05:40:00,52.6,50.0,30.08,N/A,-737280,0.0,0.0,91,0.00,,,0.00,Wunderground v.1.13,2013-05-18 09:40:00,
2013-05-18 05:45:00,52.5,49.9,30.08,N/A,-737280,0.0,0.0,91,0.00,,,0.00,Wunderground v.1.13,2013-05-18 09:45:00,
2013-05-18 05:50:00,52.5,49.9,30.08,WSW,248,0.0,1.0,91,0.00,,,0.00,Wunderground v.1.13,2013-05-18 09:50:00,
2013-05-18 05:55:00,52.4,49.8,30.08,N/A,-737280,0.0,0.0,91,0.00,,,0.00,Wunderground v.1.13,2013-05-18 09:55:00,
2013-05-18 06:00:00,52.3,49.8,30.08,N/A,-737280,0.0,0.0,91,0.00,,,0.00,Wunderground v.1.13,2013-05-18 10:00:00,
2013-05-18 06:05:00,52.3,49.8,30.08,N/A,-737280,0.0,0.0,91,0.00,,,0.00,Wunderground v.1.13,2013-05-18 10:05:00,
2013-05-18 06:10:00,52.3,49.8,30.09,N/A,-737280,0.0,0.0,91,0.00,,,0.00,Wunderground v.1.13,2013-05-18 10:10:00,
2013-05-18 06:15:00,52.3,49.8,30.09,N/A,-737280,0.0,0.0,91,0.00,,,0.00,Wunderground v.1.13,2013-05-18 10:15:00,
2013-05-18 06:20:00,52.3,49.8,30.09,N/A,-737280,0.0,0.0,91,0.00,,,0.00,Wunderground v.1.13,2013-05-18 10:20:00,
2013-05-18 06:25:00,52.2,49.7,30.09,WSW,248,0.0,1.0,91,0.00,,,0.00,Wunderground v.1.13,2013-05-18 10:25:00,
2013-05-18 06:30:00,52.3,50.0,30.09,WSW,248,0.0,1.0,92,0.00,,,0.00,Wunderground v.1.13,2013-05-18 10:30:00,
2013-05-18 06:35:00,52.2,49.9,30.09,N/A,-737280,0.0,0.0,92,0.00,,,0.00,Wunderground v.1.13,2013-05-18 10:35:00,
2013-05-18 06:40:00,52.1,49.8,30.10,N/A,-737280,0.0,0.0,92,0.00,,,0.00,Wunderground v.1.13,2013-05-18 10:40:00,
2013-05-18 06:45:00,52.1,49.8,30.10,N/A,-737280,0.0,0.0,92,0.00,,,0.00,Wunderground v.1.13,2013-05-18 10:45:00,
2013-05-18 06:50:00,52.2,49.9,30.10,N/A,-737280,0.0,0.0,92,0.00,,,0.00,Wunderground v.1.13,2013-05-18 10:50:00,
2013-05-18 06:55:00,52.2,49.9,30.10,N/A,-737280,0.0,0.0,92,0.00,,,0.00,Wunderground v.1.13,2013-05-18 10:55:00,
2013-05-18 07:00:00,52.3,50.0,30.10,N/A,-737280,0.0,0.0,92,0.00,,,0.00,Wunderground v.1.13,2013-05-18 11:00:00,
2013-05-18 07:05:00,52.4,50.1,30.10,N/A,-737280,0.0,0.0,92,0.00,,,0.00,Wunderground v.1.13,2013-05-18 11:05:00,
2013-05-18 07:10:00,52.5,50.2,30.11,N/A,-737280,0.0,0.0,92,0.00,,,0.00,Wunderground v.1.13,2013-05-18 11:10:00,
2013-05-18 07:15:00,52.6,50.3,30.10,N/A,-737280,0.0,0.0,92,0.00,,,0.00,Wunderground v.1.13,2013-05-18 11:15:00,
2013-05-18 07:20:00,52.7,50.4,30.11,N/A,-737280,0.0,0.0,92,0.00,,,0.00,Wunderground v.1.13,2013-05-18 11:20:00,
2013-05-18 07:25:00,52.8,50.5,30.10,N/A,-737280,0.0,0.0,92,0.00,,,0.00,Wunderground v.1.13,2013-05-18 11:25:00,
2013-05-18 07:30:00,53.0,50.7,30.11,N/A,-737280,0.0,0.0,92,0.00,,,0.00,Wunderground v.1.13,2013-05-18 11:30:00,
2013-05-18 07:35:00,53.2,50.9,30.11,N/A,-737280,0.0,0.0,92,0.00,,,0.00,Wunderground v.1.13,2013-05-18 11:35:00,
2013-05-18 07:40:00,53.3,51.0,30.11,N/A,-737280,0.0,0.0,92,0.00,,,0.00,Wunderground v.1.13,2013-05-18 11:40:00,
2013-05-18 07:45:00,53.5,51.2,30.11,N/A,-737280,0.0,0.0,92,0.00,,,0.00,Wunderground v.1.13,2013-05-18 11:45:00,
2013-05-18 07:50:00,53.8,51.8,30.11,N/A,-737280,0.0,0.0,93,0.00,,,0.00,Wunderground v.1.13,2013-05-18 11:50:00,
2013-05-18 07:55:00,54.1,52.1,30.11,N/A,-737280,0.0,0.0,93,0.00,,,0.00,Wunderground v.1.13,2013-05-18 11:55:00,
2013-05-18 08:00:00,54.4,52.4,30.11,N/A,-737280,0.0,0.0,93,0.00,,,0.00,Wunderground v.1.13,2013-05-18 12:00:00,
2013-05-18 08:05:00,54.8,52.8,30.12,N/A,-737280,0.0,0.0,93,0.00,,,0.00,Wunderground v.1.13,2013-05-18 12:05:00,
2013-05-18 08:10:00,55.2,53.2,30.11,N/A,-737280,0.0,0.0,93,0.00,,,0.00,Wunderground v.1.13,2013-05-18 12:10:00,
2013-05-18 08:15:00,55.7,53.7,30.11,N/A,-737280,0.0,0.0,93,0.00,,,0.00,Wunderground v.1.13,2013-05-18 12:15:00,
2013-05-18 08:20:00,56.1,54.1,30.11,WSW,248,0.0,1.0,93,0.00,,,0.00,Wunderground v.1.13,2013-05-18 12:20:00,
2013-05-18 08:25:00,56.6,54.6,30.11,WSW,248,0.0,1.0,93,0.00,,,0.00,Wunderground v.1.13,2013-05-18 12:25:00,
2013-05-18 08:30:00,57.3,55.3,30.11,N/A,-737280,0.0,0.0,93,0.00,,,0.00,Wunderground v.1.13,2013-05-18 12:30:00,
2013-05-18 08:35:00,58.2,56.5,30.11,N/A,-737280,0.0,0.0,94,0.00,,,0.00,Wunderground v.1.13,2013-05-18 12:35:00,
2013-05-18 08:40:00,59.1,57.4,30.11,N/A,-737280,0.0,0.0,94,0.00,,,0.00,Wunderground v.1.13,2013-05-18 12:40:00,
2013-05-18 08:45:00,60.4,58.4,30.11,WSW,248,0.0,1.0,93,0.00,,,0.00,Wunderground v.1.13,2013-05-18 12:45:00,
2013-05-18 08:50:00,61.4,58.7,30.11,N/A,-737280,0.0,0.0,91,0.00,,,0.00,Wunderground v.1.13,2013-05-18 12:50:00,
2013-05-18 08:55:00,62.2,58.9,30.11,N/A,-737280,0.0,0.0,89,0.00,,,0.00,Wunderground v.1.13,2013-05-18 12:55:00,
2013-05-18 09:00:00,62.5,58.3,30.11,WSW,248,0.0,1.0,86,0.00,,,0.00,Wunderground v.1.13,2013-05-18 13:00:00,
2013-05-18 09:05:00,62.9,57.7,30.10,WSW,248,0.0,1.0,83,0.00,,,0.00,Wunderground v.1.13,2013-05-18 13:05:00,
2013-05-18 09:10:00,63.2,56.2,30.10,WSW,248,1.0,2.0,78,0.00,,,0.00,Wunderground v.1.13,2013-05-18 13:10:00,
2013-05-18 09:15:00,64.0,57.0,30.11,WSW,248,0.0,2.0,78,0.00,,,0.00,Wunderground v.1.13,2013-05-18 13:15:00,
2013-05-18 09:20:00,65.6,57.5,30.11,WSW,248,0.0,1.0,75,0.00,,,0.00,Wunderground v.1.13,2013-05-18 13:20:00,
2013-05-18 09:25:00,67.0,56.9,30.11,WSW,248,0.0,1.0,70,0.00,,,0.00,Wunderground v.1.13,2013-05-18 13:25:00,
2013-05-18 09:30:00,68.0,57.4,30.11,WSW,248,0.0,1.0,69,0.00,,,0.00,Wunderground v.1.13,2013-05-18 13:30:00,
2013-05-18 09:35:00,68.5,56.7,30.11,WSW,248,0.0,1.0,66,0.00,,,0.00,Wunderground v.1.13,2013-05-18 13:35:00,
2013-05-18 09:40:00,69.0,58.0,30.11,WSW,248,0.0,2.0,68,0.00,,,0.00,Wunderground v.1.13,2013-05-18 13:40:00,
2013-05-18 09:45:00,70.3,57.5,30.10,WSW,248,1.0,3.0,64,0.00,,,0.00,Wunderground v.1.13,2013-05-18 13:45:00,
2013-05-18 09:50:00,70.7,57.5,30.10,SE,135,1.0,2.0,63,0.00,,,0.00,Wunderground v.1.13,2013-05-18 13:50:00,
2013-05-18 09:55:00,70.8,58.0,30.10,SSE,158,0.0,4.0,64,0.00,,,0.00,Wunderground v.1.13,2013-05-18 13:55:00,
2013-05-18 10:00:00,70.9,58.1,30.10,SE,135,0.0,1.0,64,0.00,,,0.00,Wunderground v.1.13,2013-05-18 14:00:00,
2013-05-18 10:05:00,70.9,58.1,30.10,SSE,158,1.0,4.0,64,0.00,,,0.00,Wunderground v.1.13,2013-05-18 14:05:00,
2013-05-18 10:10:00,71.3,58.5,30.10,SE,135,1.0,3.0,64,0.00,,,0.00,Wunderground v.1.13,2013-05-18 14:10:00,
2013-05-18 10:15:00,71.4,58.6,30.10,South,180,2.0,4.0,64,0.00,,,0.00,Wunderground v.1.13,2013-05-18 14:15:00,
2013-05-18 10:20:00,71.6,58.3,30.10,SE,135,2.0,4.0,63,0.00,,,0.00,Wunderground v.1.13,2013-05-18 14:20:00,
2013-05-18 10:25:00,72.0,58.7,30.10,SE,135,1.0,5.0,63,0.00,,,0.00,Wunderground v.1.13,2013-05-18 14:25:00,
2013-05-18 10:30:00,72.5,59.2,30.10,SSE,158,1.0,3.0,63,0.00,,,0.00,Wunderground v.1.13,2013-05-18 14:30:00,
2013-05-18 10:35:00,73.0,59.2,30.09,SSE,158,1.0,4.0,62,0.00,,,0.00,Wunderground v.1.13,2013-05-18 14:35:00,
2013-05-18 10:40:00,73.4,59.6,30.09,SSE,158,0.0,2.0,62,0.00,,,0.00,Wunderground v.1.13,2013-05-18 14:40:00,
2013-05-18 10:45:00,74.2,59.9,30.09,SE,135,1.0,4.0,61,0.00,,,0.00,Wunderground v.1.13,2013-05-18 14:45:00,
2013-05-18 10:50:00,74.4,60.1,30.09,SSE,158,1.0,4.0,61,0.00,,,0.00,Wunderground v.1.13,2013-05-18 14:50:00,
2013-05-18 10:55:00,74.3,59.5,30.08,SE,135,2.0,4.0,60,0.00,,,0.00,Wunderground v.1.13,2013-05-18 14:55:00,
2013-05-18 11:00:00,74.4,60.5,30.08,SSW,203,2.0,5.0,62,0.00,,,0.00,Wunderground v.1.13,2013-05-18 15:00:00,
2013-05-18 11:05:00,74.3,59.5,30.08,SSW,203,1.0,3.0,60,0.00,,,0.00,Wunderground v.1.13,2013-05-18 15:05:00,
2013-05-18 11:10:00,74.9,60.1,30.08,SSW,203,0.0,3.0,60,0.00,,,0.00,Wunderground v.1.13,2013-05-18 15:10:00,
2013-05-18 11:15:00,75.4,60.5,30.08,SSE,158,0.0,2.0,60,0.00,,,0.00,Wunderground v.1.13,2013-05-18 15:15:00,
2013-05-18 11:20:00,75.7,61.3,30.08,SSE,158,1.0,3.0,61,0.00,,,0.00,Wunderground v.1.13,2013-05-18 15:20:00,
2013-05-18 11:25:00,75.6,60.7,30.08,SE,135,1.0,5.0,60,0.00,,,0.00,Wunderground v.1.13,2013-05-18 15:25:00,
2013-05-18 11:30:00,75.4,60.1,30.08,SE,135,1.0,5.0,59,0.00,,,0.00,Wunderground v.1.13,2013-05-18 15:30:00,
2013-05-18 11:35:00,75.8,60.9,30.08,SSE,158,0.0,2.0,60,0.00,,,0.00,Wunderground v.1.13,2013-05-18 15:35:00,
2013-05-18 11:40:00,76.1,61.2,30.08,WSW,248,2.0,5.0,60,0.00,,,0.00,Wunderground v.1.13,2013-05-18 15:40:00,
2013-05-18 11:45:00,76.2,60.8,30.08,SE,135,2.0,6.0,59,0.00,,,0.00,Wunderground v.1.13,2013-05-18 15:45:00,
2013-05-18 11:50:00,76.2,60.8,30.08,SSW,203,2.0,5.0,59,0.00,,,0.00,Wunderground v.1.13,2013-05-18 15:50:00,
2013-05-18 11:55:00,76.8,61.9,30.07,SSE,158,1.0,3.0,60,0.00,,,0.00,Wunderground v.1.13,2013-05-18 15:55:00,
2013-05-18 12:00:00,77.5,62.5,30.07,SSE,158,1.0,4.0,60,0.00,,,0.00,Wunderground v.1.13,2013-05-18 16:00:00,
2013-05-18 12:05:00,77.3,61.4,30.07,South,180,2.0,4.0,58,0.00,,,0.00,Wunderground v.1.13,2013-05-18 16:05:00,
2013-05-18 12:10:00,77.5,61.6,30.07,SE,135,1.0,3.0,58,0.00,,,0.00,Wunderground v.1.13,2013-05-18 16:10:00,
2013-05-18 12:15:00,78.1,62.1,30.07,SE,135,1.0,2.0,58,0.00,,,0.00,Wunderground v.1.13,2013-05-18 16:15:00,
2013-05-18 12:20:00,78.6,61.6,30.06,SE,135,1.0,3.0,56,0.00,,,0.00,Wunderground v.1.13,2013-05-18 16:20:00,
2013-05-18 12:25:00,78.1,61.6,30.06,SSE,158,2.0,6.0,57,0.00,,,0.00,Wunderground v.1.13,2013-05-18 16:25:00,
2013-05-18 12:30:00,78.1,61.6,30.06,South,180,1.0,3.0,57,0.00,,,0.00,Wunderground v.1.13,2013-05-18 16:30:00,
2013-05-18 12:35:00,78.4,62.9,30.06,SSE,158,1.0,4.0,59,0.00,,,0.00,Wunderground v.1.13,2013-05-18 16:35:00,
2013-05-18 12:40:00,78.7,63.2,30.06,South,180,1.0,4.0,59,0.00,,,0.00,Wunderground v.1.13,2013-05-18 16:40:00,
2013-05-18 12:45:00,78.7,62.2,30.05,SE,135,2.0,5.0,57,0.00,,,0.00,Wunderground v.1.13,2013-05-18 16:45:00,
2013-05-18 12:50:00,78.9,62.4,30.06,SE,135,1.0,4.0,57,0.00,,,0.00,Wunderground v.1.13,2013-05-18 16:50:00,
2013-05-18 12:55:00,79.1,63.5,30.05,SSE,158,1.0,6.0,59,0.00,,,0.00,Wunderground v.1.13,2013-05-18 16:55:00,
2013-05-18 13:00:00,79.2,61.6,30.06,SW,225,2.0,5.0,55,0.00,,,0.00,Wunderground v.1.13,2013-05-18 17:00:00,
2013-05-18 13:05:00,79.4,62.8,30.05,SSW,203,1.0,4.0,57,0.00,,,0.00,Wunderground v.1.13,2013-05-18 17:05:00,
2013-05-18 13:10:00,79.3,63.2,30.05,SSW,203,2.0,8.0,58,0.00,,,0.00,Wunderground v.1.13,2013-05-18 17:10:00,
2013-05-18 13:15:00,79.4,61.3,30.05,SE,135,2.0,8.0,54,0.00,,,0.00,Wunderground v.1.13,2013-05-18 17:15:00,
2013-05-18 13:20:00,79.6,62.0,30.05,SSE,158,1.0,4.0,55,0.00,,,0.00,Wunderground v.1.13,2013-05-18 17:20:00,
2013-05-18 13:25:00,79.9,64.3,30.04,SSE,158,1.0,5.0,59,0.00,,,0.00,Wunderground v.1.13,2013-05-18 17:25:00,
2013-05-18 13:30:00,80.3,62.7,30.04,South,180,2.0,8.0,55,0.00,,,0.00,Wunderground v.1.13,2013-05-18 17:30:00,
2013-05-18 13:35:00,80.4,62.2,30.04,SE,135,1.0,6.0,54,0.00,,,0.00,Wunderground v.1.13,2013-05-18 17:35:00,
2013-05-18 13:40:00,80.7,62.0,30.04,SE,135,1.0,3.0,53,0.00,,,0.00,Wunderground v.1.13,2013-05-18 17:40:00,
2013-05-18 13:45:00,81.1,63.4,30.04,SSE,158,1.0,3.0,55,0.00,,,0.00,Wunderground v.1.13,2013-05-18 17:45:00,
2013-05-18 13:50:00,81.3,62.5,30.04,SSE,158,1.0,6.0,53,0.00,,,0.00,Wunderground v.1.13,2013-05-18 17:50:00,
2013-05-18 13:55:00,80.9,62.2,30.03,South,180,1.0,4.0,53,0.00,,,0.00,Wunderground v.1.13,2013-05-18 17:55:00,
2013-05-18 14:00:00,80.9,62.7,30.04,SE,135,2.0,8.0,54,0.00,,,0.00,Wunderground v.1.13,2013-05-18 18:00:00,
2013-05-18 14:05:00,80.7,62.5,30.03,SE,135,1.0,7.0,54,0.00,,,0.00,Wunderground v.1.13,2013-05-18 18:05:00,
2013-05-18 14:10:00,80.9,62.7,30.03,SSW,203,3.0,7.0,54,0.00,,,0.00,Wunderground v.1.13,2013-05-18 18:10:00,
2013-05-18 14:15:00,81.3,63.1,30.03,SSE,158,1.0,8.0,54,0.00,,,0.00,Wunderground v.1.13,2013-05-18 18:15:00,
2013-05-18 14:20:00,81.4,61.5,30.03,SSE,158,2.0,4.0,51,0.00,,,0.00,Wunderground v.1.13,2013-05-18 18:20:00,
2013-05-18 14:25:00,81.4,62.1,30.03,SSE,158,2.0,7.0,52,0.00,,,0.00,Wunderground v.1.13,2013-05-18 18:25:00,
2013-05-18 14:30:00,81.4,62.1,30.02,SE,135,1.0,5.0,52,0.00,,,0.00,Wunderground v.1.13,2013-05-18 18:30:00,
2013-05-18 14:35:00,81.9,62.5,30.02,SE,135,2.0,5.0,52,0.00,,,0.00,Wunderground v.1.13,2013-05-18 18:35:00,
2013-05-18 14:40:00,82.1,61.6,30.02,SE,135,1.0,5.0,50,0.00,,,0.00,Wunderground v.1.13,2013-05-18 18:40:00,
2013-05-18 14:45:00,82.7,61.6,30.01,SE,135,1.0,6.0,49,0.00,,,0.00,Wunderground v.1.13,2013-05-18 18:45:00,
2013-05-18 14:50:00,82.6,62.1,30.01,SE,135,1.0,5.0,50,0.00,,,0.00,Wunderground v.1.13,2013-05-18 18:50:00,
2013-05-18 14:55:00,82.3,61.8,30.01,SSW,203,2.0,5.0,50,0.00,,,0.00,Wunderground v.1.13,2013-05-18 18:55:00,
2013-05-18 15:00:00,82.4,60.7,30.01,WNW,293,2.0,5.0,48,0.00,,,0.00,Wunderground v.1.13,2013-05-18 19:00:00,
2013-05-18 15:05:00,82.5,60.2,30.01,WNW,293,1.0,4.0,47,0.00,,,0.00,Wunderground v.1.13,2013-05-18 19:05:00,
2013-05-18 15:10:00,82.9,61.2,30.01,SSW,203,0.0,3.0,48,0.00,,,0.00,Wunderground v.1.13,2013-05-18 19:10:00,
2013-05-18 15:15:00,83.2,63.2,30.01,SSW,203,0.0,2.0,51,0.00,,,0.00,Wunderground v.1.13,2013-05-18 19:15:00,
2013-05-18 15:20:00,83.6,60.6,30.01,SSE,158,1.0,3.0,46,0.00,,,0.00,Wunderground v.1.13,2013-05-18 19:20:00,
2013-05-18 15:25:00,83.6,61.2,30.01,WNW,293,1.0,3.0,47,0.00,,,0.00,Wunderground v.1.13,2013-05-18 19:25:00,
2013-05-18 15:30:00,83.6,61.8,30.01,South,180,1.0,2.0,48,0.00,,,0.00,Wunderground v.1.13,2013-05-18 19:30:00,
2013-05-18 15:35:00,84.1,61.7,30.01,South,180,1.0,3.0,47,0.00,,,0.00,Wunderground v.1.13,2013-05-18 19:35:00,
2013-05-18 15:40:00,84.1,61.7,30.00,West,270,1.0,2.0,47,0.00,,,0.00,Wunderground v.1.13,2013-05-18 19:40:00,
2013-05-18 15:45:00,83.7,61.3,30.00,SSE,158,0.0,1.0,47,0.00,,,0.00,Wunderground v.1.13,2013-05-18 19:45:00,
2013-05-18 15:50:00,82.9,61.8,30.00,SSE,158,0.0,3.0,49,0.00,,,0.00,Wunderground v.1.13,2013-05-18 19:50:00,
2013-05-18 15:55:00,82.7,62.2,30.00,SSE,158,0.0,2.0,50,0.00,,,0.00,Wunderground v.1.13,2013-05-18 19:55:00,
2013-05-18 16:00:00,82.6,61.5,30.00,SSE,158,1.0,3.0,49,0.00,,,0.00,Wunderground v.1.13,2013-05-18 20:00:00,
2013-05-18 16:05:00,82.8,61.7,30.00,SE,135,0.0,2.0,49,0.00,,,0.00,Wunderground v.1.13,2013-05-18 20:05:00,
2013-05-18 16:10:00,83.1,62.5,30.00,SSE,158,1.0,3.0,50,0.00,,,0.00,Wunderground v.1.13,2013-05-18 20:10:00,
2013-05-18 16:15:00,83.4,62.2,30.00,SSE,158,1.0,3.0,49,0.00,,,0.00,Wunderground v.1.13,2013-05-18 20:15:00,
2013-05-18 16:20:00,83.0,64.1,30.00,SSE,158,1.0,2.0,53,0.00,,,0.00,Wunderground v.1.13,2013-05-18 20:20:00,
2013-05-18 16:25:00,82.7,61.6,30.00,SSE,158,0.0,2.0,49,0.00,,,0.00,Wunderground v.1.13,2013-05-18 20:25:00,
2013-05-18 16:30:00,82.8,64.5,30.00,SSE,158,0.0,1.0,54,0.00,,,0.00,Wunderground v.1.13,2013-05-18 20:30:00,
2013-05-18 16:35:00,83.1,65.3,30.00,N/A,-737280,0.0,0.0,55,0.00,,,0.00,Wunderground v.1.13,2013-05-18 20:35:00,
2013-05-18 16:40:00,83.3,65.4,30.00,SSE,158,1.0,2.0,55,0.00,,,0.00,Wunderground v.1.13,2013-05-18 20:40:00,
2013-05-18 16:45:00,82.6,64.3,30.00,SE,135,1.0,8.0,54,0.00,,,0.00,Wunderground v.1.13,2013-05-18 20:45:00,
2013-05-18 16:50:00,81.7,65.0,30.00,East,90,1.0,2.0,57,0.00,,,0.00,Wunderground v.1.13,2013-05-18 20:50:00,
2013-05-18 16:55:00,81.1,63.9,30.00,East,90,1.0,4.0,56,0.00,,,0.00,Wunderground v.1.13,2013-05-18 20:55:00,
2013-05-18 17:00:00,80.6,64.5,30.00,NE,45,1.0,5.0,58,0.00,,,0.00,Wunderground v.1.13,2013-05-18 21:00:00,
2013-05-18 17:05:00,79.8,63.7,30.00,SE,135,2.0,8.0,58,0.00,,,0.00,Wunderground v.1.13,2013-05-18 21:05:00,
2013-05-18 17:10:00,79.1,64.0,30.00,SSE,158,2.0,5.0,60,0.00,,,0.00,Wunderground v.1.13,2013-05-18 21:10:00,
2013-05-18 17:15:00,78.8,64.2,30.00,South,180,1.0,7.0,61,0.00,,,0.00,Wunderground v.1.13,2013-05-18 21:15:00,
2013-05-18 17:20:00,78.6,64.5,30.01,NE,45,1.0,4.0,62,0.00,,,0.00,Wunderground v.1.13,2013-05-18 21:20:00,
2013-05-18 17:25:00,78.2,64.1,30.01,East,90,3.0,9.0,62,0.00,,,0.00,Wunderground v.1.13,2013-05-18 21:25:00,
2013-05-18 17:30:00,77.6,63.5,30.01,SE,135,3.0,10.0,62,0.00,,,0.00,Wunderground v.1.13,2013-05-18 21:30:00,
2013-05-18 17:35:00,77.3,63.7,30.01,SE,135,1.0,5.0,63,0.00,,,0.00,Wunderground v.1.13,2013-05-18 21:35:00,
2013-05-18 17:40:00,77.3,64.2,30.01,SSE,158,1.0,3.0,64,0.00,,,0.00,Wunderground v.1.13,2013-05-18 21:40:00,
2013-05-18 17:45:00,76.8,64.1,30.01,SE,135,2.0,7.0,65,0.00,,,0.00,Wunderground v.1.13,2013-05-18 21:45:00,
2013-05-18 17:50:00,76.5,63.9,30.01,ESE,113,2.0,9.0,65,0.00,,,0.00,Wunderground v.1.13,2013-05-18 21:50:00,
2013-05-18 17:55:00,76.4,63.8,30.01,East,90,2.0,9.0,65,0.00,,,0.00,Wunderground v.1.13,2013-05-18 21:55:00,
2013-05-18 18:00:00,76.2,64.0,30.01,SE,135,2.0,6.0,66,0.00,,,0.00,Wunderground v.1.13,2013-05-18 22:00:00,
2013-05-18 18:05:00,76.1,63.9,30.01,SE,135,1.0,6.0,66,0.00,,,0.00,Wunderground v.1.13,2013-05-18 22:05:00,
2013-05-18 18:10:00,76.0,63.8,30.01,SE,135,1.0,7.0,66,0.00,,,0.00,Wunderground v.1.13,2013-05-18 22:10:00,
2013-05-18 18:15:00,76.0,63.8,30.01,SE,135,2.0,10.0,66,0.00,,,0.00,Wunderground v.1.13,2013-05-18 22:15:00,
2013-05-18 18:20:00,75.9,64.2,30.01,South,180,2.0,11.0,67,0.00,,,0.00,Wunderground v.1.13,2013-05-18 22:20:00,
2013-05-18 18:25:00,75.8,63.6,30.01,SSE,158,1.0,3.0,66,0.00,,,0.00,Wunderground v.1.13,2013-05-18 22:25:00,
2013-05-18 18:30:00,75.8,64.1,30.01,ESE,113,1.0,4.0,67,0.00,,,0.00,Wunderground v.1.13,2013-05-18 22:30:00,
2013-05-18 18:35:00,75.7,64.0,30.01,ESE,113,1.0,6.0,67,0.00,,,0.00,Wunderground v.1.13,2013-05-18 22:35:00,
2013-05-18 18:40:00,75.8,64.1,30.01,ESE,113,1.0,5.0,67,0.00,,,0.00,Wunderground v.1.13,2013-05-18 22:40:00,
2013-05-18 18:45:00,75.6,64.3,30.01,SE,135,2.0,7.0,68,0.00,,,0.00,Wunderground v.1.13,2013-05-18 22:45:00,
2013-05-18 18:50:00,75.5,64.2,30.02,West,270,1.0,3.0,68,0.00,,,0.00,Wunderground v.1.13,2013-05-18 22:50:00,
2013-05-18 18:55:00,75.5,63.8,30.02,SE,135,2.0,5.0,67,0.00,,,0.00,Wunderground v.1.13,2013-05-18 22:55:00,
2013-05-18 19:00:00,75.3,63.6,30.02,SSE,158,2.0,5.0,67,0.00,,,0.00,Wunderground v.1.13,2013-05-18 23:00:00,
2013-05-18 19:05:00,75.1,63.4,30.02,SE,135,1.0,4.0,67,0.00,,,0.00,Wunderground v.1.13,2013-05-18 23:05:00,
2013-05-18 19:10:00,74.9,63.2,30.02,SE,135,2.0,5.0,67,0.00,,,0.00,Wunderground v.1.13,2013-05-18 23:10:00,
2013-05-18 19:15:00,74.9,63.2,30.02,SSE,158,0.0,3.0,67,0.00,,,0.00,Wunderground v.1.13,2013-05-18 23:15:00,
2013-05-18 19:20:00,74.8,63.1,30.03,East,90,2.0,9.0,67,0.00,,,0.00,Wunderground v.1.13,2013-05-18 23:20:00,
2013-05-18 19:25:00,74.6,62.9,30.03,SE,135,2.0,7.0,67,0.00,,,0.00,Wunderground v.1.13,2013-05-18 23:25:00,
2013-05-18 19:30:00,74.3,62.6,30.03,SE,135,2.0,8.0,67,0.00,,,0.00,Wunderground v.1.13,2013-05-18 23:30:00,
2013-05-18 19:35:00,74.2,62.5,30.03,SW,225,2.0,7.0,67,0.00,,,0.00,Wunderground v.1.13,2013-05-18 23:35:00,
2013-05-18 19:40:00,74.1,62.9,30.03,SSE,158,1.0,4.0,68,0.00,,,0.00,Wunderground v.1.13,2013-05-18 23:40:00,
2013-05-18 19:45:00,73.9,62.7,30.03,SE,135,2.0,7.0,68,0.00,,,0.00,Wunderground v.1.13,2013-05-18 23:45:00,
2013-05-18 19:50:00,73.7,62.5,30.03,ESE,113,1.0,4.0,68,0.00,,,0.00,Wunderground v.1.13,2013-05-18 23:50:00,
2013-05-18 19:55:00,73.7,62.5,30.03,ESE,113,1.0,6.0,68,0.00,,,0.00,Wunderground v.1.13,2013-05-18 23:55:00,
2013-05-18 20:00:00,73.5,62.7,30.04,SE,135,1.0,4.0,69,0.00,,,0.00,Wunderground v.1.13,2013-05-19 00:00:00,
2013-05-18 20:05:00,73.5,62.7,30.04,SE,135,0.0,1.0,69,0.00,,,0.00,Wunderground v.1.13,2013-05-19 00:05:00,
2013-05-18 20:10:00,73.5,62.7,30.04,SE,135,0.0,1.0,69,0.00,,,0.00,Wunderground v.1.13,2013-05-19 00:10:00,
2013-05-18 20:15:00,73.4,63.0,30.04,SE,135,0.0,1.0,70,0.00,,,0.00,Wunderground v.1.13,2013-05-19 00:15:00,
2013-05-18 20:20:00,73.3,62.9,30.04,N/A,-737280,0.0,0.0,70,0.00,,,0.00,Wunderground v.1.13,2013-05-19 00:20:00,
2013-05-18 20:25:00,73.2,62.8,30.04,SE,135,0.0,1.0,70,0.00,,,0.00,Wunderground v.1.13,2013-05-19 00:25:00,
2013-05-18 20:30:00,73.0,62.6,30.04,SE,135,0.0,2.0,70,0.00,,,0.00,Wunderground v.1.13,2013-05-19 00:30:00,
2013-05-18 20:35:00,72.7,62.3,30.04,SE,135,0.0,1.0,70,0.00,,,0.00,Wunderground v.1.13,2013-05-19 00:35:00,
2013-05-18 20:40:00,72.4,62.5,30.04,SE,135,1.0,2.0,71,0.00,,,0.00,Wunderground v.1.13,2013-05-19 00:40:00,
2013-05-18 20:45:00,72.2,62.7,30.04,NW,315,1.0,5.0,72,0.00,,,0.00,Wunderground v.1.13,2013-05-19 00:45:00,
2013-05-18 20:50:00,71.9,62.4,30.04,East,90,1.0,5.0,72,0.00,,,0.00,Wunderground v.1.13,2013-05-19 00:50:00,
2013-05-18 20:55:00,71.7,62.6,30.04,NE,45,1.0,4.0,73,0.00,,,0.00,Wunderground v.1.13,2013-05-19 00:55:00,
2013-05-18 21:00:00,71.5,62.4,30.04,East,90,1.0,5.0,73,0.00,,,0.00,Wunderground v.1.13,2013-05-19 01:00:00,
2013-05-18 21:05:00,71.3,62.2,30.05,SSE,158,1.0,3.0,73,0.00,,,0.00,Wunderground v.1.13,2013-05-19 01:05:00,
2013-05-18 21:10:00,71.2,62.1,30.05,West,270,0.0,3.0,73,0.00,,,0.00,Wunderground v.1.13,2013-05-19 01:10:00,
2013-05-18 21:15:00,71.1,62.0,30.05,ESE,113,1.0,5.0,73,0.00,,,0.00,Wunderground v.1.13,2013-05-19 01:15:00,
2013-05-18 21:20:00,71.0,61.9,30.05,SE,135,0.0,2.0,73,0.00,,,0.00,Wunderground v.1.13,2013-05-19 01:20:00,
2013-05-18 21:25:00,70.8,62.1,30.05,SE,135,0.0,4.0,74,0.00,,,0.00,Wunderground v.1.13,2013-05-19 01:25:00,
2013-05-18 21:30:00,70.7,62.0,30.06,SE,135,0.0,3.0,74,0.00,,,0.00,Wunderground v.1.13,2013-05-19 01:30:00,
2013-05-18 21:35:00,70.5,61.8,30.06,SE,135,1.0,3.0,74,0.00,,,0.00,Wunderground v.1.13,2013-05-19 01:35:00,
2013-05-18 21:40:00,70.4,61.7,30.06,SE,135,1.0,6.0,74,0.00,,,0.00,Wunderground v.1.13,2013-05-19 01:40:00,
2013-05-18 21:45:00,70.2,61.9,30.06,ESE,113,1.0,5.0,75,0.00,,,0.00,Wunderground v.1.13,2013-05-19 01:45:00,
2013-05-18 21:50:00,70.1,61.8,30.06,ENE,68,1.0,3.0,75,0.00,,,0.00,Wunderground v.1.13,2013-05-19 01:50:00,
2013-05-18 21:55:00,70.0,61.7,30.06,NE,45,1.0,3.0,75,0.00,,,0.00,Wunderground v.1.13,2013-05-19 01:55:00,
2013-05-18 22:00:00,69.8,61.5,30.07,SE,135,1.0,4.0,75,0.00,,,0.00,Wunderground v.1.13,2013-05-19 02:00:00,
2013-05-18 22:05:00,69.6,61.3,30.07,East,90,1.0,5.0,75,0.00,,,0.00,Wunderground v.1.13,2013-05-19 02:05:00,
2013-05-18 22:10:00,69.5,61.2,30.07,East,90,1.0,6.0,75,0.00,,,0.00,Wunderground v.1.13,2013-05-19 02:10:00,
2013-05-18 22:15:00,69.4,61.5,30.07,ENE,68,0.0,2.0,76,0.00,,,0.00,Wunderground v.1.13,2013-05-19 02:15:00,
2013-05-18 22:20:00,69.2,61.3,30.07,SE,135,1.0,5.0,76,0.00,,,0.00,Wunderground v.1.13,2013-05-19 02:20:00,
2013-05-18 22:25:00,69.0,61.1,30.07,SE,135,1.0,4.0,76,0.00,,,0.00,Wunderground v.1.13,2013-05-19 02:25:00,
2013-05-18 22:30:00,68.9,61.0,30.07,SE,135,0.0,1.0,76,0.00,,,0.00,Wunderground v.1.13,2013-05-19 02:30:00,
2013-05-18 22:35:00,68.8,60.9,30.07,SE,135,1.0,5.0,76,0.00,,,0.00,Wunderground v.1.13,2013-05-19 02:35:00,
2013-05-18 22:40:00,68.6,61.1,30.07,ESE,113,1.0,3.0,77,0.00,,,0.00,Wunderground v.1.13,2013-05-19 02:40:00,
2013-05-18 22:45:00,68.5,61.0,30.07,ESE,113,1.0,6.0,77,0.00,,,0.00,Wunderground v.1.13,2013-05-19 02:45:00,
2013-05-18 22:50:00,68.3,60.8,30.07,SSE,158,1.0,4.0,77,0.00,,,0.00,Wunderground v.1.13,2013-05-19 02:50:00,
2013-05-18 22:55:00,68.1,60.6,30.07,SSE,158,1.0,6.0,77,0.00,,,0.00,Wunderground v.1.13,2013-05-19 02:55:00,
2013-05-18 23:00:00,68.0,60.9,30.07,SSE,158,1.0,3.0,78,0.00,,,0.00,Wunderground v.1.13,2013-05-19 03:00:00,
2013-05-18 23:05:00,67.9,60.8,30.07,East,90,1.0,6.0,78,0.00,,,0.00,Wunderground v.1.13,2013-05-19 03:05:00,
2013-05-18 23:10:00,67.8,60.7,30.07,SE,135,0.0,3.0,78,0.00,,,0.00,Wunderground v.1.13,2013-05-19 03:10:00,
2013-05-18 23:15:00,67.6,60.5,30.07,SE,135,0.0,1.0,78,0.00,,,0.00,Wunderground v.1.13,2013-05-19 03:15:00,
2013-05-18 23:20:00,67.5,60.4,30.07,SE,135,0.0,1.0,78,0.00,,,0.00,Wunderground v.1.13,2013-05-19 03:20:00,
2013-05-18 23:25:00,67.3,60.6,30.06,SE,135,0.0,2.0,79,0.00,,,0.00,Wunderground v.1.13,2013-05-19 03:25:00,
2013-05-18 23:30:00,67.1,60.4,30.06,SE,135,0.0,1.0,79,0.00,,,0.00,Wunderground v.1.13,2013-05-19 03:30:00,
2013-05-18 23:35:00,66.9,60.2,30.06,SE,135,0.0,4.0,79,0.00,,,0.00,Wunderground v.1.13,2013-05-19 03:35:00,
2013-05-18 23:40:00,66.8,60.1,30.06,SE,135,0.0,1.0,79,0.00,,,0.00,Wunderground v.1.13,2013-05-19 03:40:00,
2013-05-18 23:45:00,66.6,60.2,30.06,SE,135,1.0,2.0,80,0.00,,,0.00,Wunderground v.1.13,2013-05-19 03:45:00,
2013-05-18 23:50:00,66.4,60.0,30.06,East,90,1.0,4.0,80,0.00,,,0.00,Wunderground v.1.13,2013-05-19 03:50:00,
2013-05-18 23:55:00,66.3,59.9,30.06,ENE,68,1.0,4.0,80,0.00,,,0.00,Wunderground v.1.13,2013-05-19 03:55:00,